[[{"header":{"parameterUnit":"m.s-1","parameterCategory":1,"la1":30.2991,"la2":30.254,"lo1":-89.0895,"lo2":-89.0444,"dy":0.0017,"dx":0.0017,"nx":28,"ny":28,"refTime":"2024-10-13T03:00:00:Z","depth":0,"parameterNumber":2,"parameterNumberName":"U-component_of_WINDS"},"data":[0,0,0,0,0,0,0,0,0,0,0,0,0,0,0,0,0,0,0,0,0,0,0,0,0,0,0,0,0,0,0,0,0,0,0,0,0,0,0,0,0,0,0,0,0,0,0,0,0,0,0,0,0,0,0,0,0,0,3.8742,3.8743,0,3.8822,3.8823,3.8824,3.8776,3.8774,3.8772,3.8769,3.8855,3.8859,3.8863,0,0,0,0,0,0,0,0,0,0,0,0,0,3.8552,3.8555,3.8742,3.8743,3.8744,3.8822,3.8823,3.8824,3.8777,3.8774,3.8771,3.8768,3.8853,3.8858,3.8864,0,0,0,0,0,0,0,0,0,0,0,0,0,3.8633,3.8557,3.8742,3.8729,3.8729,3.8822,3.8823,3.8824,3.8777,3.8774,3.877,3.8767,3.8851,3.8858,3.8864,3.8974,0,0,3.8884,3.8887,0,0,0,0,0,0,0,0,3.8629,3.864,3.873,3.873,3.873,3.8785,3.8787,3.8875,3.8778,3.8759,3.8769,3.8765,3.8835,3.8842,3.8865,3.8978,3.8982,3.8885,3.8889,3.8892,3.8894,0,0,0,0,0,0,0,3.8623,3.8637,3.8773,3.8732,3.8732,3.8721,3.8729,3.8804,3.8815,3.876,3.8757,3.8767,3.8834,3.8859,3.8867,3.8983,3.8885,3.8891,3.8895,3.8897,3.9194,3.9198,0,0,0,0,0,0,3.8618,3.8632,3.8771,3.8776,3.867,3.8728,3.8736,3.8771,3.8814,3.8817,3.877,3.8765,3.8849,3.8859,3.8869,3.9003,3.8892,3.8898,3.8902,3.919,3.9195,3.9199,0,0,0,0,0,0,3.8614,3.8631,3.8768,3.8703,3.872,3.8734,3.8774,3.8775,3.8799,3.8821,3.8824,3.8793,3.8847,3.886,3.8949,3.9005,3.8901,3.8907,3.9185,3.9192,3.9197,3.927,0,0,0,0,0,0,3.8609,3.863,3.867,3.8705,3.8724,3.8845,3.8778,3.8779,3.8811,3.8804,3.8844,3.8847,3.8845,3.8939,3.8956,3.9013,3.8912,3.918,3.9188,3.9195,3.9263,3.9278,3.929,0,0,0,0,0,3.8602,3.8688,3.8673,3.869,3.8775,3.8848,3.8859,3.8854,3.8815,3.8857,3.8872,3.8846,3.8996,3.8949,3.8967,3.9027,3.9177,3.9186,3.9194,3.9256,3.9275,3.929,0,0,0,0,0,0,3.866,3.8692,3.8675,3.8774,3.8809,3.884,3.8892,3.8874,3.892,3.8913,3.8906,3.8915,3.9009,3.9026,3.8973,3.9137,3.9081,3.9094,3.9122,3.9139,3.9153,3.9147,3.8918,0,0,0,0,0,3.8684,3.874,3.8765,3.885,3.8868,3.8878,3.8909,3.8903,3.8939,3.8953,3.8974,3.9011,3.9067,3.9104,3.9156,3.9265,3.9274,3.9315,3.9329,3.934,3.9352,3.9413,3.9432,3.9228,3.9228,3.9228,0,0,3.8735,3.8759,3.8795,3.8863,3.8888,3.8948,3.889,3.8955,3.9,3.8964,3.9049,3.9066,3.9107,3.9207,3.9252,3.9224,3.941,3.9351,3.936,3.9366,3.9424,3.9444,3.9461,3.9234,3.9233,3.9232,0,0,3.8858,3.8881,3.8955,3.8983,3.9023,3.9029,3.9047,3.9082,3.9092,3.9177,3.9152,3.9206,3.9301,3.9332,3.9361,3.9499,3.9477,3.9516,3.9589,3.9649,3.9665,3.9679,3.973,3.9749,3.9527,3.9527,3.9527,0,3.8916,3.9004,3.8996,3.9064,3.9096,3.9065,3.9142,3.9169,3.9225,3.9248,3.9217,3.9338,3.9363,3.9471,3.9505,3.9528,3.955,3.9511,3.9663,3.9677,3.969,3.9739,3.9758,3.9532,3.9531,3.9531,3.953,0,3.9075,3.9136,3.9192,3.9246,3.9284,3.9356,3.9361,3.9401,3.9392,3.9402,3.9491,3.952,3.9579,3.9604,3.9596,3.9712,3.9694,3.9663,3.9607,3.9715,3.9761,3.9779,3.9538,3.9537,3.9535,3.9534,0,0,3.9236,3.9286,3.9307,3.9333,3.9376,3.9424,3.9495,3.9553,3.9588,3.9628,3.9689,3.9772,3.9744,3.9776,3.9772,3.9824,3.9934,3.9787,3.9788,3.9815,4.0067,4.0091,4.0113,3.992,3.9924,3.9926,4.0064,0,3.9363,3.9487,3.9483,3.96,3.9658,3.9631,3.9694,3.9728,3.974,3.9793,3.9806,3.9866,3.9823,3.9843,3.9893,3.991,3.9985,3.99,3.9979,3.9982,3.9971,4.0136,4.0162,4.029,4.0082,4.0085,4.0087,0,3.9527,3.9573,3.9695,3.9732,3.9756,3.9813,3.9866,3.9916,3.9956,3.9961,3.9998,3.9986,4.0061,4.0002,4.0106,4.0049,4.0081,4.0095,4.01,4.0108,4.0042,4.0151,4.0331,4.0351,4.0115,4.0113,4.0111,0,3.9635,3.9727,3.9813,3.9835,3.988,3.992,3.9941,3.9977,4.0013,4.006,4.0083,4.0139,4.017,4.0214,4.0218,4.0175,4.0325,4.0266,4.0333,4.0333,4.0366,4.0365,4.0556,4.0385,4.0385,4.0384,4.0384,0,3.9779,3.9855,3.9862,3.9915,4.0001,3.9997,4.0082,4.0099,4.0132,4.0189,4.0169,4.0223,4.0224,4.0281,4.0284,4.0372,4.0386,4.0394,4.0394,4.0396,4.0396,4.0418,4.041,4.039,4.0388,4.0387,4.0387,0,3.9914,3.9921,4.0013,4.0048,4.0059,4.0121,4.0151,4.0203,4.0213,4.0286,4.0303,4.032,4.0385,4.0394,4.047,4.0472,4.0579,4.0569,4.0565,4.0564,4.0632,4.0626,4.0846,4.0875,4.0683,4.0685,4.0687,0,4.0005,4.0063,4.0105,4.0141,4.0164,4.0223,4.026,4.0259,4.0298,4.0349,4.0395,4.0458,4.0509,4.0615,4.0635,4.0694,4.0687,4.076,4.0695,4.0697,4.069,4.0687,4.0694,4.0772,4.0774,4.0776,4.0777,0,4.0168,4.0169,4.0222,4.0277,4.0321,4.0364,4.0405,4.0436,4.0441,4.0486,4.0553,4.0592,4.0671,4.0735,4.0793,4.0816,4.0799,4.0797,4.0817,4.082,4.0817,4.0822,4.0601,4.0793,4.0791,4.079,4.0789,4.0789,4.0285,4.0336,4.0374,4.0435,4.0465,4.0504,4.0555,4.0572,4.0627,4.069,4.0687,4.0761,4.0802,4.0878,4.0906,4.0965,4.0941,4.0968,4.0975,4.0982,4.099,4.0806,4.0975,4.0975,4.0975,4.0974,4.0974,0,4.0448,4.0472,4.0527,4.0585,4.0633,4.0611,4.0656,4.0698,4.0763,4.0802,4.0852,4.093,4.0993,4.1018,4.108,4.1123,4.1117,4.1139,4.1137,4.1143,4.1007,4.0985,4.1143,4.1143,4.1143,4.1143,4.1143,4.1143,4.0539,4.0626,4.0632,4.0735,4.0758,4.0829,4.0857,4.0894,4.0925,4.1013,4.1064,4.108,4.1115,4.1179,4.1237,4.1243,4.1267,4.1294,4.1297,4.1169,4.1152,4.1136,4.1116,4.1299,4.1299,4.1428,4.143,4.1431]},{"header":{"parameterUnit":"m.s-1","parameterCategory":1,"la1":30.2991,"la2":30.254,"lo1":-89.0895,"lo2":-89.0444,"dy":0.0017,"dx":0.0017,"nx":28,"ny":28,"refTime":"2024-10-13T03:00:00:Z","depth":0,"parameterNumber":3,"parameterNumberName":"V-component_of_WINDS"},"data":[0,0,0,0,0,0,0,0,0,0,0,0,0,0,0,0,0,0,0,0,0,0,0,0,0,0,0,0,0,0,0,0,0,0,0,0,0,0,0,0,0,0,0,0,0,0,0,0,0,0,0,0,0,0,0,0,0,0,-0.1844,-0.1844,0,-0.1838,-0.1838,-0.1838,-0.182,-0.182,-0.182,-0.1819,-0.1814,-0.1814,-0.1814,0,0,0,0,0,0,0,0,0,0,0,0,0,-0.1844,-0.1844,-0.1844,-0.1844,-0.1844,-0.1838,-0.1838,-0.1838,-0.182,-0.182,-0.1819,-0.1819,-0.1814,-0.1814,-0.1814,0,0,0,0,0,0,0,0,0,0,0,0,0,-0.1842,-0.1844,-0.1844,-0.1835,-0.1834,-0.1838,-0.1838,-0.1838,-0.182,-0.182,-0.1819,-0.1819,-0.1814,-0.1814,-0.1814,-0.1827,0,0,-0.1815,-0.1815,0,0,0,0,0,0,0,0,-0.1842,-0.1842,-0.1836,-0.1835,-0.1834,-0.1829,-0.1836,-0.1834,-0.1821,-0.1826,-0.1819,-0.1819,-0.1819,-0.1819,-0.1819,-0.1827,-0.1827,-0.1815,-0.1815,-0.1815,-0.1816,0,0,0,0,0,0,0,-0.1842,-0.1842,-0.1842,-0.1836,-0.1835,-0.1832,-0.1831,-0.1835,-0.1826,-0.1825,-0.1824,-0.1823,-0.1819,-0.1819,-0.1819,-0.1827,-0.1815,-0.1815,-0.1816,-0.1816,-0.1849,-0.1849,0,0,0,0,0,0,-0.1843,-0.1842,-0.1842,-0.1842,-0.1837,-0.1832,-0.1831,-0.1832,-0.1826,-0.1824,-0.1824,-0.1822,-0.1819,-0.1819,-0.1819,-0.1836,-0.1815,-0.1816,-0.1816,-0.1848,-0.1849,-0.185,0,0,0,0,0,0,-0.1843,-0.1844,-0.1842,-0.1842,-0.1841,-0.1833,-0.1833,-0.1832,-0.1832,-0.1825,-0.1823,-0.1826,-0.1818,-0.1818,-0.1826,-0.1835,-0.1816,-0.1816,-0.1847,-0.1848,-0.1849,-0.1869,0,0,0,0,0,0,-0.1844,-0.1844,-0.1848,-0.1842,-0.1841,-0.1849,-0.1834,-0.1832,-0.1832,-0.1831,-0.1826,-0.1825,-0.1818,-0.1826,-0.1826,-0.1836,-0.1816,-0.1846,-0.1848,-0.1849,-0.1868,-0.1871,-0.1874,0,0,0,0,0,-0.1844,-0.1853,-0.1848,-0.1848,-0.1846,-0.1849,-0.1849,-0.1841,-0.1833,-0.1838,-0.1834,-0.1825,-0.1834,-0.1827,-0.1827,-0.1837,-0.1846,-0.1847,-0.1849,-0.1866,-0.187,-0.1873,0,0,0,0,0,0,-0.186,-0.1852,-0.1846,-0.1854,-0.1853,-0.1846,-0.1852,-0.1845,-0.1845,-0.1844,-0.1834,-0.1833,-0.1843,-0.184,-0.1832,-0.1851,-0.1839,-0.184,-0.1852,-0.1856,-0.1858,-0.1859,-0.1817,0,0,0,0,0,-0.1865,-0.1867,-0.186,-0.1868,-0.1868,-0.186,-0.1861,-0.1855,-0.1853,-0.1853,-0.1849,-0.1848,-0.1851,-0.1853,-0.1855,-0.1867,-0.1867,-0.1874,-0.1877,-0.188,-0.1882,-0.1891,-0.1894,-0.1855,-0.1855,-0.1855,0,0,-0.1874,-0.187,-0.1872,-0.1871,-0.1869,-0.1874,-0.186,-0.1864,-0.1867,-0.1853,-0.1861,-0.1858,-0.1857,-0.1867,-0.1872,-0.1866,-0.1893,-0.1882,-0.1884,-0.1884,-0.1893,-0.1896,-0.19,-0.1856,-0.1855,-0.1855,0,0,-0.1894,-0.189,-0.1897,-0.1896,-0.1894,-0.1889,-0.1891,-0.1886,-0.1884,-0.1892,-0.1882,-0.1886,-0.1891,-0.1891,-0.1892,-0.1915,-0.1907,-0.1916,-0.1931,-0.194,-0.1943,-0.1946,-0.1956,-0.1959,-0.1917,-0.1917,-0.1917,0,-0.1906,-0.1911,-0.1902,-0.1908,-0.1909,-0.1897,-0.1905,-0.1904,-0.1903,-0.1904,-0.1897,-0.1905,-0.1903,-0.1915,-0.1921,-0.1921,-0.1924,-0.1916,-0.1943,-0.1946,-0.1948,-0.1958,-0.1961,-0.1918,-0.1918,-0.1918,-0.1918,0,-0.1927,-0.1931,-0.1937,-0.1937,-0.1938,-0.1945,-0.1939,-0.1942,-0.1936,-0.1933,-0.1942,-0.194,-0.1942,-0.1944,-0.1939,-0.1956,-0.1953,-0.1945,-0.1932,-0.1953,-0.1962,-0.1966,-0.192,-0.192,-0.1919,-0.1919,0,0,-0.1956,-0.1952,-0.1954,-0.1955,-0.1953,-0.1956,-0.1964,-0.1967,-0.197,-0.197,-0.1977,-0.1983,-0.1976,-0.1977,-0.1972,-0.1979,-0.2,-0.197,-0.197,-0.1978,-0.2023,-0.203,-0.2034,-0.1995,-0.1996,-0.1997,-0.2023,0,-0.1976,-0.1987,-0.1981,-0.1994,-0.1999,-0.1989,-0.1996,-0.1996,-0.1994,-0.1998,-0.1996,-0.2001,-0.199,-0.1991,-0.1998,-0.1996,-0.201,-0.1994,-0.2004,-0.2004,-0.2005,-0.2038,-0.2045,-0.207,-0.2027,-0.2027,-0.2027,0,-0.2,-0.2002,-0.2016,-0.2015,-0.2017,-0.2023,-0.2027,-0.203,-0.2032,-0.2029,-0.2032,-0.2025,-0.2034,-0.2022,-0.2036,-0.2025,-0.2029,-0.2029,-0.203,-0.2031,-0.2018,-0.2042,-0.2078,-0.2082,-0.2033,-0.2032,-0.2032,0,-0.2022,-0.2028,-0.2037,-0.2038,-0.2037,-0.2042,-0.2042,-0.2042,-0.2045,-0.2049,-0.2051,-0.2055,-0.2058,-0.2062,-0.2058,-0.2049,-0.2073,-0.206,-0.2073,-0.2073,-0.2079,-0.2079,-0.2118,-0.2079,-0.2079,-0.2079,-0.2079,0,-0.2045,-0.2054,-0.2048,-0.2054,-0.2065,-0.2058,-0.207,-0.2068,-0.2069,-0.2076,-0.2068,-0.2075,-0.2068,-0.2075,-0.2072,-0.2085,-0.2086,-0.2086,-0.2085,-0.2087,-0.2087,-0.209,-0.2089,-0.208,-0.208,-0.208,-0.208,0,-0.2071,-0.2066,-0.2077,-0.2075,-0.2076,-0.2084,-0.2083,-0.209,-0.2088,-0.2097,-0.2099,-0.2096,-0.2104,-0.21,-0.2108,-0.2106,-0.2124,-0.212,-0.2123,-0.2123,-0.2137,-0.2136,-0.218,-0.2186,-0.2142,-0.2143,-0.2143,0,-0.2086,-0.2093,-0.2094,-0.2098,-0.2098,-0.2105,-0.2108,-0.2103,-0.2107,-0.211,-0.2117,-0.2124,-0.213,-0.2144,-0.2143,-0.215,-0.2147,-0.2162,-0.2148,-0.2151,-0.2149,-0.2149,-0.2151,-0.2165,-0.2165,-0.2166,-0.2166,0,-0.2115,-0.2113,-0.2118,-0.2124,-0.2128,-0.2132,-0.2135,-0.2139,-0.2134,-0.214,-0.2148,-0.2152,-0.2162,-0.217,-0.2177,-0.2178,-0.2172,-0.217,-0.2174,-0.2177,-0.218,-0.218,-0.2132,-0.2169,-0.2169,-0.2169,-0.2169,-0.2168,-0.2137,-0.2144,-0.2146,-0.2153,-0.2155,-0.2159,-0.2166,-0.2165,-0.2172,-0.2179,-0.2176,-0.2186,-0.219,-0.2198,-0.22,-0.221,-0.2204,-0.2209,-0.221,-0.2212,-0.2215,-0.2177,-0.221,-0.221,-0.221,-0.221,-0.221,0,-0.2167,-0.2168,-0.2175,-0.218,-0.2186,-0.218,-0.2184,-0.219,-0.2199,-0.2202,-0.2209,-0.222,-0.2229,-0.2229,-0.2238,-0.2245,-0.2243,-0.2248,-0.2248,-0.2249,-0.2218,-0.2215,-0.225,-0.225,-0.225,-0.225,-0.225,-0.225,-0.2183,-0.2196,-0.2194,-0.2209,-0.221,-0.222,-0.2223,-0.2228,-0.2231,-0.2244,-0.2251,-0.2252,-0.2255,-0.2264,-0.2273,-0.2273,-0.2277,-0.2284,-0.2283,-0.2254,-0.2251,-0.2247,-0.2244,-0.2284,-0.2284,-0.2313,-0.2313,-0.2313]}]]